Location: Brachstadt
(48.6975°N, 10.6755°E)
Time: 00:12:13
(UTC+00:00)

BlueWalker 3 - Visible Passes

Search period start: 29 November 2022 00:00
Search period end: 09 December 2022 00:00
Orbit: 500 x 519 km, 53.2° (Epoch: 28 November)

Date Brightness Start Highest point End Pass type
(mag) Time Alt. Az. Time Alt. Az. Time Alt. Az.
29 Nov 2.3 16:54:22 10° W 16:58:14 57° NNW 17:00:09 27° NE visible
29 Nov 4.5 18:33:37 10° WNW 18:34:58 19° WNW 18:34:58 19° WNW visible
30 Nov 2.3 16:36:01 10° W 16:39:53 55° NNW 16:42:29 19° ENE visible
30 Nov 3.9 18:15:16 10° WNW 18:17:19 26° NW 18:17:19 26° NW visible
01 Dec 2.3 16:17:40 10° W 16:21:32 54° NNW 16:24:50 13° ENE visible
01 Dec 3.2 17:56:55 10° WNW 17:59:39 35° NW 17:59:39 35° NW visible
02 Dec 2.4 15:59:19 10° W 16:03:10 53° NNW 16:07:01 10° ENE visible
02 Dec 2.7 17:38:33 10° WNW 17:42:00 42° N 17:42:00 42° N visible
03 Dec 2.4 17:20:11 10° WNW 17:23:57 43° N 17:24:22 42° NNE visible
03 Dec 5.2 18:58:58 10° WNW 18:59:11 11° WNW 18:59:11 11° WNW visible
04 Dec 2.5 17:01:48 10° WNW 17:05:35 44° N 17:06:45 33° NE visible
04 Dec 4.7 18:40:35 10° WNW 18:41:35 17° WNW 18:41:35 17° WNW visible
05 Dec 2.4 16:43:25 10° WNW 16:47:12 45° N 16:49:11 24° ENE visible
05 Dec 4.0 18:22:11 10° WNW 18:24:01 26° WNW 18:24:01 26° WNW visible
06 Dec 2.4 16:25:02 10° WNW 16:28:49 45° N 16:31:42 16° ENE visible
06 Dec 3.0 18:03:47 10° WNW 18:06:32 43° WNW 18:06:32 43° WNW visible
07 Dec 2.4 16:06:38 10° WNW 16:10:26 46° N 16:14:12 10° E visible
07 Dec 2.1 17:45:23 10° WNW 17:49:08 70° SW 17:49:08 70° SW visible
08 Dec 2.1 17:26:58 10° WNW 17:30:52 68° SSW 17:31:51 46° SE visible
